DW4277 Weather Reports


time (UTC)temp
F
wind
direction
speed
knots
gust
knots
rain 1hr
in
rain 24hr
in
rain mn
in
humidity
%
barometer
mb
20260504024521 57 206 7.0 19.1 0.00 0.00 0.00 62 1012.6
20260504023016 57 204 7.0 14.8 0.00 0.00 0.00 62 1012.6
20260504021512 57 211 0.0 0.0 0.00 0.00 0.00 62 1012.8
20260504020015 58 211 0.0 0.0 0.00 0.00 0.00 60 1013.0
20260504014507 58 201 0.0 12.2 0.00 0.00 0.00 59 1013.0
20260504013009 59 214 1.7 14.8 0.00 0.00 0.00 57 1012.7
20260504011502 60 216 1.7 20.0 0.00 0.00 0.00 56 1012.5
20260504010109 60 193 3.5 19.1 0.00 0.00 0.00 56 1012.5
20260504004557 60 184 2.6 13.9 0.00 0.00 0.00 55 1012.5
20260504003055 60 196 5.2 19.1 0.00 0.00 0.00 54 1012.5
20260504001610 60 177 5.2 18.2 0.00 0.00 0.00 54 1012.7
20260504000050 60 205 8.7 21.7 0.00 0.00 0.00 54 1012.7
20260503234546 61 191 6.1 19.1 0.00 0.00 0.00 53 1012.7
20260503233044 61 208 9.6 22.6 0.00 0.00 0.00 53 1012.8
20260503231543 61 199 7.8 17.4 0.00 0.00 0.00 53 1012.8
20260503230045 61 208 4.3 17.4 0.00 0.00 0.00 53 1012.9
20260503224538 62 168 6.1 19.1 0.00 0.00 0.00 53 1013.0
20260503223035 62 197 7.0 18.2 0.00 0.00 0.00 52 1013.1
20260503221540 62 188 9.6 23.5 0.00 0.00 0.00 51 1013.2
20260503220030 63 189 6.1 20.9 0.00 0.00 0.00 50 1013.3
20260503214529 63 205 8.7 26.9 0.00 0.00 0.00 49 1013.4
20260503213032 63 175 5.2 19.1 0.00 0.00 0.00 49 1013.4
20260503211528 63 190 2.6 17.4 0.00 0.00 0.00 49 1013.5
20260503210028 64 211 7.8 21.7 0.00 0.00 0.00 49 1013.6
20260503204527 64 206 7.0 16.5 0.00 0.00 0.00 49 1013.6
20260503203026 65 213 6.1 17.4 0.00 0.00 0.00 48 1013.7
20260503201530 65 217 6.1 19.1 0.00 0.00 0.00 47 1013.8
20260503200031 66 208 7.0 20.9 0.00 0.00 0.00 46 1013.7
20260503194529 66 184 7.8 20.9 0.00 0.00 0.00 46 1013.9
20260503193024 67 180 5.2 19.1 0.00 0.00 0.00 45 1013.9
20260503191526 67 199 11.3 22.6 0.00 0.00 0.00 44 1013.8
20260503190024 68 189 7.8 25.2 0.00 0.00 0.00 44 1013.7
20260503184527 68 181 7.0 19.1 0.00 0.00 0.00 43 1013.6
20260503183033 69 191 10.4 23.5 0.00 0.00 0.00 42 1013.5
20260503181533 70 173 13.0 25.2 0.00 0.00 0.00 41 1013.3
20260503180021 70 160 8.7 22.6 0.00 0.00 0.00 41 1013.2
20260503174521 71 173 7.8 22.6 0.00 0.00 0.00 40 1013.1
20260503173039 72 177 10.4 26.1 0.00 0.00 0.00 39 1013.1
20260503171521 73 185 13.9 27.8 0.00 0.00 0.00 37 1013.0
20260503081602 66 166 12.2 26.1 0.00 0.00 0.00 49 1017.6
20260503071546 62 192 8.7 17.4 0.00 0.00 0.00 56 1017.5
20260503054521 55 183 6.1 13.0 0.00 0.00 0.00 68 1017.4
20260503053017 54 175 6.1 13.9 0.00 0.00 0.00 71 1017.3
20260503051511 54 134 0.0 0.0 0.00 0.00 0.00 72 1017.4
20260503050006 53 134 0.0 0.0 0.00 0.00 0.00 72 1017.4
20260503044501 51 134 0.0 0.0 0.00 0.00 0.00 78 1017.3
20260503043059 50 134 0.0 0.0 0.00 0.00 0.00 76 1017.2
20260503041556 48 134 0.0 0.0 0.00 0.00 0.00 78 1017.2
20260503040050 47 134 0.0 0.0 0.00 0.00 0.00 78 1017.1
20260503034553 47 134 0.0 0.0 0.00 0.00 0.00 79 1017.1
20260503033047 47 127 0.0 0.0 0.00 0.00 0.00 78 1016.9
20260503031547 47 127 0.0 0.0 0.00 0.00 0.00 78 1017.0
20260503030050 47 127 0.0 0.0 0.00 0.00 0.00 78 1016.9